Change the Weather History Date:

Wednesday, December 8, 2010

  Actual Average Record
Temperature  
Mean Temperature 69 °F -  
Max Temperature 76 °F 79 °F 84 °F (1997)
Min Temperature 62 °F 64 °F 64 °F (1999)
Cooling Degree Days 4    
Growing Degree Days 19 (Base 50)    
Moisture  
Dew Point 60 °F    
Average Humidity 72    
Maximum Humidity 88    
Minimum Humidity 54    
Precipitation  
Precipitation 0.00 in 0.03 in - ()
Sea Level Pressure  
Sea Level Pressure 29.99 in    
Wind  
Wind Speed 8 mph ()    
Max Wind Speed 18 mph    
Max Gust Speed 23 mph    
Visibility 7.5 miles    
Events      
Averages and records for this station are not official NWS values.
T = Trace of Precipitation, MM = Missing Value Source: Averaged Metar Reports

Daily Weather History Graph

Daily Weather History Graph

Search for Another Location

Airport or City:

Trip Planner

Search our weather history database for the weather conditions in past years. The results will help you decide how hot, cold, wet, or windy it might be!

Date:

Astronomy

Dec. 08, 2010 Rise Set
Actual Time 5:41 AM CST 5:15 PM CST
Civil Twilight 5:19 AM CST 5:38 PM CST
Nautical Twilight 4:53 AM CST 6:04 PM CST
Astronomical Twilight 4:26 AM CST 6:30 PM CST
Moon 8:12 AM CST (12/8) 8:07 PM CST (12/8)
Length of Visible Light 12h 19m
Length of Day
11h 33m
Waxing Crescent, 10% of the Moon is Illuminated
Dec 8
Waxing Crescent
Dec 13
First Quarter
Dec 21
Full
Dec 27
Last Quarter
Jan 4
New

Hourly Weather History & Observations

Time (CST) Temp. Dew Point Humidity Pressure Visibility Wind Dir Wind Speed Gust Speed Precip Events Conditions
12:00 AM 64 °F 57 °F 72% 29.89 in 12 mi ENE 9.2 mph - -   Scattered Clouds
12:00 AM 64.4 °F 57.2 °F 77% 30.04 in 6.2 mi ENE 9.2 mph - N/A   Scattered Clouds
1:00 AM 64.4 °F 57.2 °F 77% 30.02 in 6.2 mi East 8.1 mph - N/A   Scattered Clouds
2:00 AM 64.4 °F 59.0 °F 83% 30.00 in 6.2 mi East 9.2 mph - N/A   Scattered Clouds
3:00 AM 64 °F 57 °F 72% 29.86 in 12 mi East 5.8 mph - -   Scattered Clouds
3:00 AM 64.4 °F 57.2 °F 77% 30.00 in 6.2 mi East 5.8 mph - N/A   Scattered Clouds
4:00 AM 64.4 °F 57.2 °F 77% 30.01 in 6.2 mi East 8.1 mph - N/A   Scattered Clouds
5:00 AM 64.4 °F 57.2 °F 77% 30.01 in 6.2 mi East 9.2 mph - N/A   Scattered Clouds
6:00 AM 66 °F 57 °F 66% 29.91 in 12 mi ESE 9.2 mph - -   Scattered Clouds
6:00 AM 66.2 °F 57.2 °F 73% 30.02 in 6.2 mi ESE 9.2 mph - N/A   Scattered Clouds
7:00 AM 68.0 °F 57.2 °F 68% 30.04 in 6.2 mi ESE 11.5 mph 23.0 mph N/A   Mostly Cloudy
8:00 AM 69.8 °F 59.0 °F 68% 30.07 in 6.2 mi ESE 8.1 mph - N/A   Mostly Cloudy
9:00 AM 71.6 °F 59.0 °F 64% 30.06 in 6.2 mi ESE 10.4 mph - N/A   Mostly Cloudy
10:00 AM 73.4 °F 59.0 °F 61% 30.06 in 6.2 mi SSE 11.5 mph - N/A   Mostly Cloudy
11:00 AM 77.0 °F 59.0 °F 54% 30.04 in - SE 18.4 mph - N/A   Clear
12:00 PM 77.0 °F 60.8 °F 57% 30.02 in 6.2 mi ESE 9.2 mph - N/A   Mostly Cloudy
1:00 PM 75.2 °F 60.8 °F 61% 30.00 in 6.2 mi SSE 15.0 mph - N/A   Mostly Cloudy
2:00 PM 73.4 °F 60.8 °F 65% 29.98 in 6.2 mi ESE 11.5 mph - N/A   Mostly Cloudy
3:00 PM 73 °F 63 °F 62% 29.84 in 12 mi SE 9.2 mph - -   Overcast
3:00 PM 73.4 °F 62.6 °F 69% 29.98 in 6.2 mi SE 9.2 mph - N/A   Mostly Cloudy
4:00 PM 71.6 °F 62.6 °F 73% 29.98 in - ESE 6.9 mph - N/A   Clear
5:00 PM 71.6 °F 60.8 °F 69% 29.98 in - ESE 8.1 mph - N/A   Clear
6:00 PM 70 °F 63 °F 71% 29.86 in 12 mi ESE 9.2 mph - -   Overcast
6:00 PM 69.8 °F 62.6 °F 78% 29.99 in 6.2 mi ESE 9.2 mph - N/A   Mostly Cloudy
7:00 PM 69.8 °F 64.4 °F 83% 30.01 in 6.2 mi East 6.9 mph - N/A   Scattered Clouds
8:00 PM 69.8 °F 64.4 °F 83% 30.03 in 6.2 mi ESE 3.5 mph - N/A   Scattered Clouds
9:00 PM 68 °F 64 °F 85% 29.88 in 12 mi ESE 6.9 mph - -  
9:00 PM 68.0 °F 64.4 °F 88% 30.04 in 6.2 mi ESE 6.9 mph - N/A   Scattered Clouds
10:00 PM 69.8 °F 62.6 °F 78% 30.04 in 6.2 mi East 8.1 mph - N/A   Mostly Cloudy
11:00 PM 68.0 °F 62.6 °F 83% 30.03 in 6.2 mi ESE 10.4 mph - N/A   Mostly Cloudy